Flag for U.S.A. Weather past 2 weeks in Sarasota, Florida, U.S.A.

Now
73 °F

Clear.


Feels Like: 71 °F
Forecast: 77 / 89 °F
Wind: 6 mph from East

Location: Sarasota-Bradenton International Airport

Current Time: Jul 4, 2015 at 4:31:00 AM

Latest Report: Jul 4, 2015 at 3:53 AM


Visibility: 10 mi

Pressure: 30.05 "Hg

Humidity: 88%

Dew point: 69 °F

Location of SarasotaLocation

Historic Weather in Sarasota — Graph

°F

Sarasota temperature yesterday

Maximum temperature yesterday: 91 °F (at 2:53 PM)
Minimum temperature yesterday: 73 °F (at 4:53 AM)
Average temperature yesterday: 81 °F

Past Weeks' High & Low Weather Summary

 TemperatureHumidityPressure
High93 °F (Jun 22, 2:53 PM)94% (Jun 19, 6:53 AM)30.15 "Hg (Jun 19, 6:53 AM)
Low72 °F (Jun 26, 4:53 AM)52% (Jun 29, 3:53 PM)29.98 "Hg (Jun 28, 4:53 AM)
Average83 °F72%30.08 "Hg
* Reported Jun 19 2:53 AM — Jul 4 2:53 AM, Sarasota, Weather by CustomWeather, © 2015

Note: Actual official high and low records may vary slightly from our data, if they occured in-between our weather recording intervals... More about our weather records

Advertising

Sarasota weather history for previous 24 hours

 ConditionsComfort  
Time TempWeatherWind HumidityBarometerVisibility
2:53 AM
Sat, Jul 4
74 °FClear.No wind85%30.06 "Hg10 mi
1:53 AM74 °FClear.5 mph88%30.07 "Hg10 mi
12:53 AM75 °FClear.7 mph85%30.08 "Hg10 mi
11:53 PM
Fri, Jul 3
76 °FClear.6 mph82%30.11 "Hg10 mi
10:53 PM76 °FClear.8 mph85%30.10 "Hg10 mi
9:53 PM77 °FPassing clouds.8 mph79%30.10 "Hg10 mi
8:53 PM80 °FScattered clouds.12 mph67%30.09 "Hg10 mi
7:53 PM84 °FSunny.3 mph57%30.06 "Hg10 mi
6:53 PM82 °FThundershowers. Passing clouds.8 mph63%30.05 "Hg10 mi
5:53 PM84 °FPartly sunny.6 mph63%30.03 "Hg10 mi
4:53 PM90 °FThunderstorms. Scattered clouds.10 mph56%30.03 "Hg10 mi
4:00 PM91 °FSunny.10 mph54%30.04 "Hg10 mi
2:53 PM91 °FScattered clouds.10 mph52%30.06 "Hg10 mi
1:53 PM90 °FSunny.9 mph52%30.06 "Hg10 mi
12:53 PM90 °FSunny.9 mph52%30.08 "Hg10 mi
11:53 AM88 °FSunny.7 mph54%30.08 "Hg10 mi
10:53 AM88 °FSunny.7 mph55%30.08 "Hg10 mi
9:53 AM85 °FSunny.5 mph63%30.09 "Hg10 mi
8:53 AM81 °FSunny.3 mph74%30.08 "Hg10 mi
7:53 AM76 °FSunny.5 mph88%30.07 "Hg10 mi
6:53 AM74 °FClear.3 mph91%30.07 "Hg10 mi
5:53 AM73 °FClear.5 mph90%30.05 "Hg10 mi
4:53 AM73 °FClear.3 mph88%30.04 "Hg10 mi
Weather by CustomWeather, © 2015

See weather overviewHow to use our weather pages